Terminal Aerodrome Forecast
Issued by NWS

Home | Current Version | Previous Version | Text Only | Print | Product List | Glossary On
Versions: 1 2 3 4 5 6 7 8 9 10 11 12 13 14 15
000
FTUS43 KICT 270520
TAFRSL
TAF
KRSL 270520Z 2706/2806 VRB05KT P6SM BKN090
     FM271200 16008KT P6SM SCT100
     FM271800 17017G24KT P6SM SKC
     FM280000 18012KT P6SM SCT250=

USA.gov is the U.S. government's official web portal to all federal, state and local government web resources and services.